EW5254 Weather Reports


Display with metric or nautical units.
time (UTC)temp
F
wind
direction
speed
MPH
gust
MPH
rain 1hr
in
rain 24hr
in
rain mn
in
humidity
%
barometer
mb
20260510053019 71 153 12.0 24.0 0.00 0.00 0.00 33 999.6
20260510051516 72 169 14.0 20.0 0.00 0.00 0.00 31 999.7
20260510050014 72 151 16.0 28.0 0.00 0.00 0.00 29 999.8
20260510044513 72 163 11.0 22.0 0.00 0.00 0.00 28 999.8
20260510043012 73 103 12.0 20.0 0.00 0.00 0.00 28 999.9
20260510041511 73 149 9.0 18.0 0.00 0.00 0.00 27 1000.0
20260510040010 73 155 11.0 23.0 0.00 0.00 0.00 27 1000.0
20260510034510 74 171 11.0 19.0 0.00 0.00 0.00 26 999.8
20260510033012 74 142 13.0 20.0 0.00 0.00 0.00 25 999.6
20260510031509 75 149 13.0 23.0 0.00 0.00 0.00 23 999.5
20260510030008 75 146 12.0 20.0 0.00 0.00 0.00 21 999.4
20260510024507 76 167 11.0 22.0 0.00 0.00 0.00 19 999.3
20260510023007 76 151 13.0 23.0 0.00 0.00 0.00 19 999.2
20260510021509 77 174 11.0 19.0 0.00 0.00 0.00 19 999.2
20260510020005 78 161 9.0 18.0 0.00 0.00 0.00 18 999.1
20260510014504 78 138 8.0 19.0 0.00 0.00 0.00 17 998.9
20260510013004 80 115 7.0 13.0 0.00 0.00 0.00 12 998.8
20260510011503 80 160 7.0 12.0 0.00 0.00 0.00 12 998.7
20260510010001 81 84 7.0 11.0 0.00 0.00 0.00 12 998.7
20260510004602 82 86 5.0 9.0 0.00 0.00 0.00 11 998.7
20260510003101 83 72 4.0 11.0 0.00 0.00 0.00 11 998.7
20260510001557 84 98 8.0 12.0 0.00 0.00 0.00 11 998.8
20260510000104 85 126 4.0 8.0 0.00 0.00 0.00 10 999.0
20260509234604 86 340 3.0 8.0 0.00 0.00 0.00 10 999.2
20260509233056 86 67 4.0 12.0 0.00 0.00 0.00 10 999.2
20260509231607 86 57 2.0 6.0 0.00 0.00 0.00 10 999.3
20260509230059 85 29 3.0 10.0 0.00 0.00 0.00 10 999.5
20260509224546 85 120 1.0 13.0 0.00 0.00 0.00 10 999.6
20260509223045 85 24 4.0 12.0 0.00 0.00 0.00 10 999.7
20260509221542 85 47 10.0 16.0 0.00 0.00 0.00 11 999.8
20260509220040 86 39 3.0 9.0 0.00 0.00 0.00 9 1000.0
20260509214539 85 113 4.0 13.0 0.00 0.00 0.00 10 1000.2
20260509213037 84 5 5.0 14.0 0.00 0.00 0.00 10 1000.4
20260509211534 85 5 4.0 13.0 0.00 0.00 0.00 10 1000.7
20260509210034 85 338 3.0 13.0 0.00 0.00 0.00 10 1001.1
20260509204534 85 66 7.0 11.0 0.00 0.00 0.00 11 1001.3
20260509203035 85 78 1.0 9.0 0.00 0.00 0.00 11 1001.5
20260509201525 84 72 4.0 14.0 0.00 0.00 0.00 10 1001.8
20260509200023 86 297 1.0 9.0 0.00 0.00 0.00 12 1001.9
20260509194521 85 355 3.0 10.0 0.00 0.00 0.00 11 1002.0
20260509193019 85 344 4.0 14.0 0.00 0.00 0.00 11 1002.1
20260509191516 84 74 5.0 14.0 0.00 0.00 0.00 12 1002.3
20260509190018 84 63 5.0 11.0 0.00 0.00 0.00 12 1002.4
20260509184525 83 315 3.0 8.0 0.00 0.00 0.00 13 1002.6
20260509183020 82 23 5.0 14.0 0.00 0.00 0.00 13 1002.8
20260509181516 83 40 8.0 14.0 0.00 0.00 0.00 13 1002.9
20260509180016 82 346 3.0 9.0 0.00 0.00 0.00 15 1003.0
20260509174508 82 264 2.0 11.0 0.00 0.00 0.00 15 1003.3
20260509173008 81 293 6.0 11.0 0.00 0.00 0.00 15 1003.4
20260509171507 80 310 4.0 11.0 0.00 0.00 0.00 14 1003.5
20260509170004 80 300 3.0 10.0 0.00 0.00 0.00 16 1003.7
20260509164502 80 337 1.0 9.0 0.00 0.00 0.00 17 1003.8
20260509163106 79 325 2.0 6.0 0.00 0.00 0.00 17 1003.8
20260509161559 78 5 3.0 9.0 0.00 0.00 0.00 18 1003.8
20260509160056 78 315 3.0 8.0 0.00 0.00 0.00 19 1004.0
20260509154606 77 89 3.0 8.0 0.00 0.00 0.00 18 1003.9
20260509153054 77 86 2.0 9.0 0.00 0.00 0.00 19 1004.0
20260509151555 77 92 2.0 7.0 0.00 0.00 0.00 19 1004.0
20260509150106 77 30 0.0 5.0 0.00 0.00 0.00 19 1004.1
20260509144556 76 123 1.0 5.0 0.00 0.00 0.00 18 1004.4
20260509143053 75 30 1.0 4.0 0.00 0.00 0.00 19 1004.3
20260509141542 73 101 0.0 2.0 0.00 0.00 0.00 21 1004.5
20260509140038 70 101 1.0 6.0 0.00 0.00 0.00 22 1004.6
20260509134535 69 92 2.0 8.0 0.00 0.00 0.00 24 1004.5
20260509133032 69 119 3.0 4.0 0.00 0.00 0.00 25 1004.4
20260509131528 68 191 2.0 3.0 0.00 0.00 0.00 24 1004.3
20260509130024 67 191 0.0 0.0 0.00 0.00 0.00 25 1004.1
20260509124529 65 191 1.0 4.0 0.00 0.00 0.00 26 1003.6
20260509123022 65 204 2.0 4.0 0.00 0.00 0.00 27 1003.3
20260509121533 64 214 1.0 4.0 0.00 0.00 0.00 27 1003.3
20260509120020 64 214 1.0 3.0 0.00 0.00 0.00 27 1003.2
20260509114540 64 214 2.0 4.0 0.00 0.00 0.00 27 1003.1
20260509113019 64 214 2.0 4.0 0.00 0.00 0.00 28 1003.1
20260509111519 63 214 3.0 5.0 0.00 0.00 0.00 29 1003.0
20260509110018 63 214 2.0 4.0 0.00 0.00 0.00 29 1003.3
20260509104521 63 214 2.0 4.0 0.00 0.00 0.00 29 1003.2
20260509103017 63 214 2.0 5.0 0.00 0.00 0.00 29 1003.1
20260509101516 63 214 3.0 6.0 0.00 0.00 0.00 29 1002.9
20260509100015 62 214 3.0 5.0 0.00 0.00 0.00 31 1002.8
20260509094521 62 214 3.0 6.0 0.00 0.00 0.00 31 1002.7
20260509093015 62 214 4.0 6.0 0.00 0.00 0.00 31 1002.6
20260509091513 62 214 4.0 6.0 0.00 0.00 0.00 32 1002.6
20260509090036 61 214 4.0 6.0 0.00 0.00 0.00 33 1002.7
20260509084511 62 214 3.0 5.0 0.00 0.00 0.00 32 1002.7
20260509083023 63 214 2.0 5.0 0.00 0.00 0.00 30 1002.7
20260509081508 64 214 3.0 4.0 0.00 0.00 0.00 30 1002.7
20260509080011 64 214 3.0 5.0 0.00 0.00 0.00 30 1002.7
20260509074515 65 214 3.0 5.0 0.00 0.00 0.00 29 1002.6
20260509073007 66 214 3.0 5.0 0.00 0.00 0.00 28 1002.7
20260509071505 66 200 2.0 4.0 0.00 0.00 0.00 28 1002.7
20260509070001 65 117 3.0 6.0 0.00 0.00 0.00 29 1002.8
20260509064559 65 173 1.0 4.0 0.00 0.00 0.00 31 1002.8
20260509063118 64 181 3.0 4.0 0.00 0.00 0.00 32 1002.9
20260509061557 64 317 0.0 0.0 0.00 0.00 0.00 35 1003.1
20260509060054 63 317 0.0 0.0 0.00 0.00 0.00 36 1003.3
20260509054551 63 317 0.0 0.0 0.00 0.00 0.00 37 1003.4